Regional Weather Roundup
Issued by NWS

Home | Current Version | Previous Version | Graphics & Text | Print | Product List | Glossary On
Versions: 1 2 3 4 5 6 7 8 9 10 11 12 13 14 15 16 17 18 19 20 21 22 23 24 25 26 27 28 29 30 31 32 33 34 35 36 37 38 39 40 41 42 43 44 45 46 47 48 49 50
246
ASUS43 KIND 261459
RWRIN

WEATHER ROUNDUP FOR INDIANA
NATIONAL WEATHER SERVICE INDIANAPOLIS IN
1100 AM EDT FRI AUG 26 2016

NOTE: "FAIR" INDICATES FEW OR NO CLOUDS BELOW 12,000 FEET WITH NO
SIGNIFICANT WEATHER AND/OR OBSTRUCTIONS TO VISIBILITY.

* - STATION DOES NOT REPORT WEATHER SUCH AS PRECIPITATION OR FOG.

+ - STATION NOT QUALITY CONTROLLED BY THE NATIONAL WEATHER SERVICE.
    USE DATA WITH CAUTION...ESPECIALLY DEWPOINT AND RELATIVE
    HUMIDITY OBSERVATIONS.

INZ001>003-010>013-019-020-261600-
NORTHWEST INDIANA

CITY           SKY/WX    TMP DP  RH WIND       PRES   REMARKS
GARY /AIRPORT/ MOSUNNY   77  70  78 N8        30.18S
KNOX *+        PTSUNNY   73  46  38 NE5       30.17S
MONTICELLO +   SUNNY     77  63  63 NE7       30.15S
RENSSELAER +   MOSUNNY   75  70  83 NE5       30.17R

$$

LMZ046-743>745-261600-
SOUTHERN LAKE MICHIGAN

STATION/POSITION TIME  TEMP    WIND        PRES    WAVE
                       AIR SEA DIR/SP/G            HT
                 (UTC) (F)     (DEG/KT/KT) (MB)    (FT)
BURNS HARBOR     1406   73      30/  7/  9 1021.7R
MICHIGAN CITY    1400   73      20/  5/  6   N/A
5NW MICH CITY    1400   74 74   50/  6/  8   N/A     2

$$

INZ004-005-014>016-021>024-261600-
NORTH CENTRAL INDIANA

CITY           SKY/WX    TMP DP  RH WIND       PRES   REMARKS
ELKHART        MOSUNNY   75  66  73 CALM      30.18S
GOSHEN         MOSUNNY   75  66  73 NE7       30.18R
SOUTH BEND     CLOUDY    76  66  71 CALM      30.18S

$$

INZ006>009-017-018-025>027-261600-
NORTHEAST INDIANA

CITY           SKY/WX    TMP DP  RH WIND       PRES   REMARKS
ANGOLA *+      SUNNY     75  64  69 CALM      30.17S
FORT WAYNE     PTSUNNY   77  61  57 E8        30.17R

$$

INZ028-029-035-036-043>045-051>053-261600-
WEST CENTRAL INDIANA

CITY           SKY/WX    TMP DP  RH WIND       PRES   REMARKS
CRAWFORDSVL +  SUNNY     77  74  91 CALM      30.15R
GREENCASTLE +  SUNNY     79  75  89 SE6       30.15R
LAFAYETTE      CLOUDY    75  73  93 E6        30.14S
TERRE HAUTE    SUNNY     83  74  74 SE7       30.13R

$$

INZ030>032-037>040-046>048-054>057-064-065-261600-
CENTRAL INDIANA

CITY           SKY/WX    TMP DP  RH WIND       PRES   REMARKS
ANDERSON       PTSUNNY   77  75  94 CALM      30.06S
COLUMBUS       PTSUNNY   81  79  94 CALM      30.16R
INDIANAPOLIS   MOSUNNY   80  70  71 CALM      30.14R
-EAGLE CREEK   SUNNY     78  70  76 CALM      30.14S
MT COMFORT *+  SUNNY     77  70  78 CALM      30.16R
SHELBYVILLE    SUNNY     80  69  69 SE8       30.15R

$$

INZ033-034-041-042-049-050-058-059-261600-
EAST CENTRAL INDIANA

CITY           SKY/WX    TMP DP  RH WIND       PRES   REMARKS
MUNCIE         CLOUDY    77  73  87 E6        30.17R

$$

INZ060-061-067>069-081>083-085>088-261600-
SOUTHWEST INDIANA

CITY           SKY/WX    TMP DP  RH WIND       PRES   REMARKS
EVANSVILLE     SUNNY     87  74  64 NE3       30.13S HX  95
HUNTINGBURG *+ MOSUNNY   84  75  74 CALM      30.15R

$$

INZ062-063-066-070>080-084-089>092-261600-
SOUTH CENTRAL AND SOUTHEAST INDIANA

CITY           SKY/WX    TMP DP  RH WIND       PRES   REMARKS
BLOOMINGTON    SUNNY     84  72  67 SE3       30.14S
MADISON *+     SUNNY     84  72  65 CALM      30.18S

$$





USA.gov is the U.S. government's official web portal to all federal, state and local government web resources and services.